Regional Weather Roundup
Issued by NWS Newport/Morehead, NC

Current Version | Previous Version | Text Only | Print | Product List | Glossary On
Versions: 1 2 3 4 5 6 7 8 9 10 11 12 13 14 15 16 17 18 19 20 21 22 23 24 25 26 27 28 29 30 31 32 33 34 35 36 37 38 39 40 41 42 43 44 45 46 47 48 49 50
000
ASUS42 KMHX 311925
RWRMHX
WEATHER ROUNDUP FOR EASTERN NORTH CAROLINA
NATIONAL WEATHER SERVICE NEWPORT/MOREHEAD CITY NC
300 PM EDT TUE MAY 31 2016

NOTE: "FAIR" INDICATES FEW OR NO CLOUDS BELOW 12,000 FEET
WITH NO SIGNIFICANT WEATHER AND/OR OBSTRUCTIONS TO VISIBILITY

NCZ015>017-031-032-045>047-102-103-312000-
NORTH COAST

CITY           SKY/WX    TMP DP  RH WIND       PRES   REMARKS
EDENTON        CLOUDY    82  69  63 SE13      29.95F
ELIZABETH CITY PTSUNNY   79  68  69 E10       29.96R
KITTY HAWK     PTCLDY    77  68  73 CALM      29.96R
MANTEO         PTSUNNY   73  70  92 NE10      29.97R

$$

NCZ045>047-081-094-103-104-312000-
CENTRAL COAST

CITY           SKY/WX    TMP DP  RH WIND       PRES   REMARKS
FRISCO         PTSUNNY   77  70  79 NE9       29.93F

$$

NCZ095-097-098-100-101-312000-
SOUTHERN COAST

CITY           SKY/WX    TMP DP  RH WIND       PRES   REMARKS
BEAUFORT       PTSUNNY   81  73  76 E10       29.92R
CEDAR ISLAND   NOT AVBL
JACKSONVILLE   LGT RAIN  75  71  87 NE13      29.91S
PINEY ISLAND   PTCLDY   N/A N/A N/A NE18G24   29.93S
WILMINGTON     CLOUDY    79  71  76 NE14      29.89F


$$

NCZ011>013-027>030-043-044-078>080-089-090>093-098-312000-
COASTAL PLAIN

CITY           SKY/WX    TMP DP  RH WIND       PRES   REMARKS
AHOSKIE        MOSUNNY   80  67  65 CALM      29.94F
CLINTON        MOSUNNY   85  71  62 NE10      29.92R
ELIZABETHTOWN  CLOUDY    83  69  62 NE3       29.90S
GOLDSBORO      MOSUNNY   85  71  64 NE10G20   29.90F
GREENVILLE     PTSUNNY   82  70  65 E8        29.95S
HAVELOCK       PTSUNNY   81  73  76 NE17G23   29.93S THUNDER
KENANSVILLE    HVY RAIN  77  68  74 CALM      29.94R
KINSTON        CLOUDY    84  68  58 NE12      29.93F
NEW BERN       LGT RAIN  74  71  91 NE9       29.93F
RICHLANDS      RAIN      73  72  96 NE7       29.93F
ROCKY MOUNT    PTSUNNY   83  68  60 NE5       29.93F
WASHINGTON     CLOUDY    81  70  70 NE6       29.92F
WHITEVILLE     CLOUDY    82  71  68 NE8       29.88F

$$

AMZ130-135-150-152-154-156-158-170-250-252-270-ANZ085-086-088-633-658-670-312000-
MARINE OBSERVATIONS

STATION/POSITION TIME  TEMP    WIND        PRES    WAVE   SWELL
                       AIR SEA DIR/SP/G            HT/PER HT/PER
                 (UTC) (F)     (DEG/KT/KT) (MB)    (FT/S) (FT/S)
CHESAPEAKE LIGHT 1900   70      60/  6/  6 1015.5
64 E VA BEACH    1850   66 65   20/  8/ 10 1014.2    4/ 7   3/ 7
DUCK             1900   69 65   40/  6/  7 1014.1
2 E DUCK         1811      69                N/A     3/ 7
OREGON INLET     1900   71 72   50/  9/ 11 1014.2
13E OREGON INLT  1900      69                N/A     4/ 8   3/ 8
HATTERAS CG      1900   75 74   30/  9/ 12 1013.4
DIAMOND BUOY     1850   78 81   70/  4/  4 1013.6    4/ 8   3/ 8
CAPE LOOKOUT     1900   75      50/ 16/ 18 1012.7
BEAUFORT LAB     1900   79 75   70/ 10/ 14 1012.3
30 SE NEW RVR IN 1825      76                N/A     5/ 8
27 SE WRIGHTSVLE 1908   78 76   80/  6/ 10 1011.7
5 SE WRIGHTSVLE  1908   76 76   70/ 16/ 21 1012.1
225 S CAPE HAT   1850   77 77  150/ 12/ 14 1014.5    4/ 7   3/ 7
41 SE CHARLESTON 1850   76 77  250/  6/  8 1012.2    3/ 8   3/ 8

$$



USA.gov is the U.S. government's official web portal to all federal, state and local government web resources and services.